RRR9720 EGQS-LCRA

Flight info

Callsign RRR9720
Flight time 5h 22m
Altitude 41000
Route ADN DCT SOPTO DCT HAM DCT HDO DCT BNO DCT BUD DCT SAC DCT GOL DCT BIG DCT AYT DCT PHA
Aircraft A332/H-SDE3GHIJ2J3J5M1RVWXY/LB2D1

Departure

Time 2026-05-06 17:27
Airport RAF Lossiemouth (EGQS)

Arrival

Time 2026-05-06 22:49
Airport RAF Akrotiri (LCRA)
Time Latitude Longitude Altitude Speed Heading
2026-05-06 17:16 57.71433 -3.33302 41 ft 0 kts 139°
2026-05-06 17:20 57.71432 -3.33300 41 ft 0 kts 139°
2026-05-06 17:21 57.71401 -3.33269 41 ft 7 kts 157°
2026-05-06 17:21 57.71339 -3.33200 41 ft 14 kts 141°
2026-05-06 17:22 57.71261 -3.33241 42 ft 12 kts 219°
2026-05-06 17:22 57.71205 -3.33350 43 ft 11 kts 227°
2026-05-06 17:22 57.71152 -3.33460 44 ft 11 kts 229°
2026-05-06 17:22 57.71102 -3.33567 44 ft 11 kts 229°
2026-05-06 17:23 57.71052 -3.33672 45 ft 11 kts 229°
2026-05-06 17:23 57.70982 -3.33821 46 ft 20 kts 229°
2026-05-06 17:23 57.70876 -3.34053 48 ft 27 kts 227°
2026-05-06 17:23 57.70729 -3.34348 48 ft 35 kts 223°
2026-05-06 17:24 57.70594 -3.34550 47 ft 39 kts 219°
2026-05-06 17:24 57.70363 -3.34889 43 ft 46 kts 218°
2026-05-06 17:24 57.70091 -3.35279 38 ft 52 kts 218°
2026-05-06 17:24 57.69913 -3.35475 35 ft 21 kts 181°
2026-05-06 17:25 57.69822 -3.35328 33 ft 12 kts 94°
2026-05-06 17:25 57.69870 -3.35216 33 ft 4 kts 44°
2026-05-06 17:25 57.69870 -3.35215 33 ft 0 kts 44°
2026-05-06 17:26 57.69876 -3.35204 34 ft 12 kts 44°
2026-05-06 17:26 57.70119 -3.34725 40 ft 86 kts 45°
2026-05-06 17:26 57.70716 -3.33699 49 ft 145 kts 44°
2026-05-06 17:26 57.71563 -3.32191 112 ft 182 kts 42°
2026-05-06 17:27 57.72475 -3.30702 822 ft 175 kts 43°
2026-05-06 17:27 57.73439 -3.29057 1237 ft 201 kts 42°
2026-05-06 17:27 57.74531 -3.27178 1665 ft 227 kts 41°
2026-05-06 17:27 57.75668 -3.24906 2076 ft 250 kts 57°
2026-05-06 17:28 57.76339 -3.21866 2660 ft 263 kts 75°
2026-05-06 17:28 57.76768 -3.18469 3375 ft 269 kts 73°
2026-05-06 17:28 57.77606 -3.15437 4492 ft 257 kts 46°
2026-05-06 17:28 57.78914 -3.13179 5223 ft 263 kts 40°
2026-05-06 17:29 57.80335 -3.10832 5561 ft 286 kts 40°
2026-05-06 17:29 57.81892 -3.08258 5693 ft 308 kts 40°
2026-05-06 17:29 57.83545 -3.05526 5835 ft 328 kts 40°
2026-05-06 17:29 57.85316 -3.02584 5953 ft 351 kts 41°
2026-05-06 17:30 57.86844 -2.98879 6164 ft 371 kts 60°
2026-05-06 17:30 57.87743 -2.94137 6007 ft 400 kts 78°
2026-05-06 17:30 57.87873 -2.92467 6215 ft 398 kts 82°
2026-05-06 17:30 57.88020 -2.90274 6943 ft 385 kts 82°
2026-05-06 17:31 57.88301 -2.85412 7511 ft 367 kts 86°
2026-05-06 17:31 57.88049 -2.80717 7253 ft 357 kts 107°
2026-05-06 17:31 57.86926 -2.76710 7426 ft 340 kts 131°
2026-05-06 17:31 57.85147 -2.73997 8002 ft 322 kts 155°
2026-05-06 17:32 57.83157 -2.72305 8930 ft 311 kts 151°
2026-05-06 17:32 57.81530 -2.69700 9121 ft 304 kts 127°
2026-05-06 17:32 57.80545 -2.66317 9238 ft 288 kts 113°
2026-05-06 17:32 57.79815 -2.62806 9396 ft 293 kts 111°
2026-05-06 17:33 57.79054 -2.59278 9508 ft 296 kts 114°
2026-05-06 17:33 57.78208 -2.55770 9637 ft 295 kts 116°
2026-05-06 17:33 57.77305 -2.52320 9765 ft 295 kts 117°
2026-05-06 17:33 57.76368 -2.48891 9894 ft 296 kts 118°
2026-05-06 17:34 57.75415 -2.45469 10006 ft 296 kts 118°
2026-05-06 17:34 57.74456 -2.42041 10021 ft 298 kts 118°
2026-05-06 17:34 57.73494 -2.38609 10024 ft 297 kts 118°
2026-05-06 17:34 57.72533 -2.35178 10024 ft 297 kts 118°
2026-05-06 17:35 57.71576 -2.31760 10028 ft 297 kts 118°
2026-05-06 17:35 57.70613 -2.28327 10028 ft 297 kts 118°
2026-05-06 17:35 57.69650 -2.24896 10028 ft 298 kts 118°
2026-05-06 17:36 57.67712 -2.18019 10325 ft 301 kts 119°
2026-05-06 17:36 57.66731 -2.14549 11000 ft 303 kts 119°
2026-05-06 17:36 57.65742 -2.11055 11656 ft 306 kts 119°
2026-05-06 17:36 57.64734 -2.07503 12265 ft 311 kts 119°
2026-05-06 17:37 57.63727 -2.03958 12871 ft 315 kts 120°
2026-05-06 17:37 57.62690 -2.00312 13495 ft 320 kts 120°
2026-05-06 17:37 57.61635 -1.96608 14107 ft 324 kts 120°
2026-05-06 17:37 57.60570 -1.92873 14683 ft 328 kts 120°
2026-05-06 17:38 57.59492 -1.89103 15276 ft 331 kts 120°
2026-05-06 17:38 57.58403 -1.85301 15858 ft 334 kts 120°
2026-05-06 17:38 57.57301 -1.81459 16453 ft 338 kts 120°
2026-05-06 17:38 57.56185 -1.77576 17036 ft 341 kts 120°
2026-05-06 17:39 57.55056 -1.73655 17612 ft 345 kts 120°
2026-05-06 17:39 57.53916 -1.69701 18239 ft 348 kts 121°
2026-05-06 17:39 57.52764 -1.65712 18742 ft 352 kts 121°
2026-05-06 17:39 57.51596 -1.61675 19252 ft 355 kts 121°
2026-05-06 17:40 57.50416 -1.57606 19741 ft 359 kts 121°
2026-05-06 17:40 57.49222 -1.53493 20255 ft 362 kts 121°
2026-05-06 17:40 57.48018 -1.49355 20764 ft 366 kts 121°
2026-05-06 17:40 57.46801 -1.45181 21266 ft 369 kts 121°
2026-05-06 17:41 57.45570 -1.40964 21782 ft 373 kts 121°
2026-05-06 17:41 57.44325 -1.36708 22276 ft 376 kts 121°
2026-05-06 17:41 57.43073 -1.32433 22764 ft 380 kts 121°
2026-05-06 17:41 57.41797 -1.28090 23281 ft 384 kts 121°
2026-05-06 17:42 57.40509 -1.23707 23750 ft 387 kts 121°
2026-05-06 17:42 57.39233 -1.19377 24192 ft 389 kts 121°
2026-05-06 17:42 57.37929 -1.14960 24637 ft 392 kts 121°
2026-05-06 17:42 57.36611 -1.10505 25064 ft 394 kts 121°
2026-05-06 17:43 57.35287 -1.06036 25496 ft 397 kts 121°
2026-05-06 17:43 57.33953 -1.01545 25923 ft 400 kts 121°
2026-05-06 17:43 57.32609 -0.97028 26354 ft 402 kts 121°
2026-05-06 17:43 57.31255 -0.92485 26797 ft 405 kts 121°
2026-05-06 17:44 57.29885 -0.87899 27212 ft 407 kts 121°
2026-05-06 17:44 57.28510 -0.83302 27643 ft 410 kts 121°
2026-05-06 17:44 57.27123 -0.78676 28059 ft 413 kts 121°
2026-05-06 17:44 57.25725 -0.74024 28485 ft 415 kts 121°
2026-05-06 17:45 57.24313 -0.69333 28898 ft 418 kts 121°
2026-05-06 17:45 57.22910 -0.64681 29305 ft 421 kts 121°
2026-05-06 17:45 57.21477 -0.59942 29716 ft 423 kts 121°
2026-05-06 17:45 57.20035 -0.55179 30139 ft 426 kts 121°
2026-05-06 17:46 57.18583 -0.50396 30502 ft 428 kts 121°
2026-05-06 17:46 57.17123 -0.45593 30883 ft 430 kts 121°
2026-05-06 17:46 57.15652 -0.40767 31245 ft 433 kts 121°
2026-05-06 17:46 57.14171 -0.35918 31625 ft 435 kts 121°
2026-05-06 17:47 57.12680 -0.31047 31990 ft 438 kts 121°
2026-05-06 17:47 57.11183 -0.26166 32359 ft 440 kts 121°
2026-05-06 17:47 57.09671 -0.21244 32714 ft 443 kts 122°
2026-05-06 17:47 57.08150 -0.16304 33039 ft 446 kts 122°
2026-05-06 17:48 57.06619 -0.11345 33453 ft 447 kts 122°
2026-05-06 17:48 57.05081 -0.06368 33926 ft 446 kts 122°
2026-05-06 17:48 57.03545 -0.01409 34331 ft 446 kts 122°
2026-05-06 17:48 57.02013 0.03525 34685 ft 445 kts 122°
2026-05-06 17:49 57.00496 0.08399 35038 ft 445 kts 122°
2026-05-06 17:49 56.98959 0.13330 35391 ft 445 kts 122°
2026-05-06 17:49 56.97420 0.18254 35718 ft 445 kts 122°
2026-05-06 17:49 56.95882 0.23169 36048 ft 444 kts 122°
2026-05-06 17:50 56.94339 0.28084 36379 ft 444 kts 122°
2026-05-06 17:50 56.92800 0.32979 36698 ft 444 kts 122°
2026-05-06 17:50 56.91257 0.37876 36942 ft 445 kts 122°
2026-05-06 17:50 56.89687 0.42799 37051 ft 451 kts 123°
2026-05-06 17:51 56.86354 0.52691 37276 ft 460 kts 126°
2026-05-06 17:51 56.84569 0.57555 37494 ft 462 kts 128°
2026-05-06 17:51 56.82682 0.62328 37743 ft 463 kts 130°
2026-05-06 17:52 56.80692 0.66950 37984 ft 464 kts 133°
2026-05-06 17:52 56.78573 0.71414 38211 ft 465 kts 136°
2026-05-06 17:52 56.76323 0.75662 38401 ft 467 kts 139°
2026-05-06 17:52 56.73930 0.79664 38579 ft 468 kts 143°
2026-05-06 17:53 56.71384 0.83377 38748 ft 469 kts 147°
2026-05-06 17:53 56.68692 0.86743 38915 ft 470 kts 152°
2026-05-06 17:53 56.65900 0.89671 39073 ft 470 kts 157°
2026-05-06 17:53 56.62937 0.92192 39244 ft 469 kts 162°
2026-05-06 17:54 56.56896 0.97124 38835 ft 496 kts 150°
2026-05-06 17:54 56.54115 1.00964 38786 ft 504 kts 137°
2026-05-06 17:54 56.51827 1.05745 39197 ft 502 kts 126°
2026-05-06 17:55 56.49989 1.11089 39523 ft 498 kts 122°
2026-05-06 17:55 56.48211 1.16572 39266 ft 509 kts 122°
2026-05-06 17:55 56.46460 1.22124 39553 ft 505 kts 121°
2026-05-06 17:55 56.44771 1.27630 39984 ft 498 kts 120°
2026-05-06 17:56 56.43139 1.33101 40359 ft 494 kts 120°
2026-05-06 17:56 56.41537 1.38617 40605 ft 494 kts 119°
2026-05-06 17:56 56.38430 1.49769 40744 ft 500 kts 117°
2026-05-06 17:57 56.35447 1.61099 40842 ft 505 kts 116°
2026-05-06 17:57 56.32572 1.72684 40996 ft 507 kts 115°
2026-05-06 17:58 56.29837 1.84400 41151 ft 509 kts 114°
2026-05-06 17:58 56.27460 1.96424 41013 ft 516 kts 96°
2026-05-06 17:59 56.27568 2.02868 40413 ft 521 kts 73°
2026-05-06 17:59 56.29025 2.08756 40136 ft 503 kts 49°
2026-05-06 17:59 56.31386 2.12671 41436 ft 432 kts 31°
2026-05-06 17:59 56.33965 2.14810 41996 ft 389 kts
2026-05-06 18:00 56.36631 2.15565 40661 ft 403 kts
2026-05-06 18:00 56.39535 2.15530 39069 ft 431 kts 346°
2026-05-06 18:00 56.42452 2.14042 37490 ft 449 kts 326°
2026-05-06 18:00 56.44897 2.10611 36650 ft 447 kts 312°
2026-05-06 18:01 56.47078 2.06708 36763 ft 433 kts 312°
2026-05-06 18:01 56.49211 2.02918 36660 ft 427 kts 316°
2026-05-06 18:01 56.51626 1.99802 36516 ft 426 kts 328°
2026-05-06 18:01 56.54195 1.97171 36393 ft 416 kts 320°
2026-05-06 18:02 56.56345 1.93794 36224 ft 406 kts 312°
2026-05-06 18:02 56.58317 1.90177 36105 ft 400 kts 311°
2026-05-06 18:02 56.62119 1.83134 36072 ft 380 kts 311°
2026-05-06 18:03 56.63946 1.79759 36252 ft 356 kts 311°
2026-05-06 18:03 56.65422 1.77107 38632 ft 239 kts 311°
2026-05-06 18:03 56.66453 1.75381 39616 ft 181 kts 311°
2026-05-06 18:03 56.67456 1.73711 37696 ft 225 kts 311°
2026-05-06 18:04 56.68300 1.72224 35834 ft 282 kts 311°
2026-05-06 18:04 56.69817 1.69463 33615 ft 330 kts 311°
2026-05-06 18:04 56.71522 1.66305 30918 ft 370 kts 311°
2026-05-06 18:04 56.73395 1.62795 27981 ft 401 kts 311°
2026-05-06 18:05 56.75385 1.59038 25537 ft 421 kts 311°
2026-05-06 18:05 56.77210 1.55247 25604 ft 370 kts 306°
2026-05-06 18:05 56.78594 1.51721 26461 ft 320 kts 300°
2026-05-06 18:05 56.79630 1.48376 27022 ft 288 kts 293°
2026-05-06 18:06 56.80385 1.45096 26944 ft 278 kts 287°
2026-05-06 18:06 56.80915 1.41651 26268 ft 287 kts 280°
2026-05-06 18:06 56.81210 1.37988 25595 ft 295 kts 276°
2026-05-06 18:06 56.81464 1.34258 25196 ft 296 kts 278°
2026-05-06 18:07 56.81816 1.30636 24997 ft 291 kts 281°
2026-05-06 18:07 56.82301 1.26999 24836 ft 296 kts 284°
2026-05-06 18:07 56.82956 1.23435 25132 ft 301 kts 291°
2026-05-06 18:07 56.83822 1.20008 25750 ft 296 kts 294°
2026-05-06 18:08 56.84758 1.16611 26059 ft 301 kts 296°
2026-05-06 18:08 56.86030 1.13509 26152 ft 316 kts 308°
2026-05-06 18:08 56.87573 1.10415 25875 ft 340 kts 310°
2026-05-06 18:08 56.89255 1.07236 25952 ft 354 kts 311°
2026-05-06 18:09 56.91001 1.03938 26053 ft 368 kts 311°
2026-05-06 18:09 56.92814 1.00496 26077 ft 384 kts 311°
2026-05-06 18:09 56.94692 0.96913 26079 ft 395 kts 311°
2026-05-06 18:09 56.96606 0.93249 26075 ft 398 kts 311°
2026-05-06 18:10 56.98519 0.89588 26077 ft 395 kts 311°
2026-05-06 18:10 57.00415 0.85958 26077 ft 393 kts 311°
2026-05-06 18:10 57.02311 0.82324 26076 ft 394 kts 311°
2026-05-06 18:10 57.04209 0.78682 26076 ft 395 kts 311°
2026-05-06 18:11 57.06110 0.75030 26077 ft 394 kts 311°
2026-05-06 18:11 57.08003 0.71389 26074 ft 394 kts 311°
2026-05-06 18:11 57.09891 0.67756 26076 ft 393 kts 311°
2026-05-06 18:11 57.11758 0.64161 26076 ft 393 kts 310°
2026-05-06 18:12 57.13647 0.60522 26075 ft 393 kts 310°
2026-05-06 18:12 57.15542 0.56869 26076 ft 393 kts 310°
2026-05-06 18:12 57.17431 0.53223 26076 ft 393 kts 310°
2026-05-06 18:12 57.19313 0.49588 26077 ft 392 kts 310°
2026-05-06 18:13 57.21196 0.45949 26076 ft 392 kts 310°
2026-05-06 18:13 57.23078 0.42311 26077 ft 392 kts 310°
2026-05-06 18:13 57.24960 0.38667 26077 ft 392 kts 310°
2026-05-06 18:13 57.26841 0.35026 26076 ft 392 kts 310°
2026-05-06 18:14 57.28723 0.31378 26074 ft 391 kts 310°
2026-05-06 18:14 57.30604 0.27729 26074 ft 391 kts 310°
2026-05-06 18:14 57.32478 0.24091 26072 ft 391 kts 310°
2026-05-06 18:14 57.34358 0.20438 26073 ft 391 kts 310°
2026-05-06 18:15 57.36231 0.16796 26073 ft 390 kts 310°
2026-05-06 18:15 57.38103 0.13154 26069 ft 390 kts 310°
2026-05-06 18:15 57.39970 0.09517 26071 ft 390 kts 310°
2026-05-06 18:15 57.41818 0.05912 26073 ft 390 kts 310°
2026-05-06 18:16 57.43684 0.02271 26070 ft 389 kts 310°
2026-05-06 18:16 57.45548 -0.01371 26068 ft 389 kts 310°
2026-05-06 18:16 57.47414 -0.05019 26070 ft 389 kts 310°
2026-05-06 18:16 57.49278 -0.08668 26066 ft 389 kts 310°
2026-05-06 18:17 57.51136 -0.12307 26069 ft 388 kts 310°
2026-05-06 18:17 57.52999 -0.15958 26068 ft 388 kts 310°
2026-05-06 18:17 57.54857 -0.19600 26067 ft 388 kts 310°
2026-05-06 18:17 57.56715 -0.23245 26063 ft 387 kts 310°
2026-05-06 18:18 57.58573 -0.26893 26065 ft 387 kts 310°
2026-05-06 18:18 57.60425 -0.30531 26065 ft 387 kts 310°
2026-05-06 18:18 57.62252 -0.34122 26060 ft 386 kts 310°
2026-05-06 18:18 57.64107 -0.37766 26061 ft 386 kts 310°
2026-05-06 18:19 57.65952 -0.41394 26061 ft 386 kts 310°
2026-05-06 18:19 57.67800 -0.45032 26063 ft 385 kts 310°
2026-05-06 18:19 57.69645 -0.48667 26062 ft 385 kts 310°
2026-05-06 18:19 57.71488 -0.52298 26058 ft 385 kts 310°
2026-05-06 18:20 57.73330 -0.55929 26058 ft 384 kts 310°
2026-05-06 18:20 57.75172 -0.59564 26058 ft 384 kts 310°
2026-05-06 18:20 57.77010 -0.63193 26063 ft 384 kts 310°
2026-05-06 18:20 57.78845 -0.66819 26064 ft 383 kts 310°
2026-05-06 18:21 57.80683 -0.70453 26047 ft 383 kts 310°
2026-05-06 18:21 57.82516 -0.74077 26042 ft 383 kts 310°
2026-05-06 18:21 57.84347 -0.77698 26048 ft 383 kts 310°
2026-05-06 18:21 57.86177 -0.81320 26046 ft 383 kts 310°
2026-05-06 18:22 57.88013 -0.84952 26055 ft 382 kts 310°
2026-05-06 18:22 57.89825 -0.88539 26059 ft 382 kts 310°
2026-05-06 18:22 57.91664 -0.92181 26049 ft 382 kts 310°
2026-05-06 18:22 57.93506 -0.95830 26050 ft 382 kts 310°
2026-05-06 18:23 57.95335 -0.99454 26050 ft 382 kts 310°
2026-05-06 18:23 57.97163 -1.03078 26046 ft 382 kts 310°
2026-05-06 18:23 57.98969 -1.06660 26051 ft 381 kts 310°
2026-05-06 18:23 58.00796 -1.10284 26047 ft 381 kts 310°
2026-05-06 18:24 58.02622 -1.13906 26047 ft 381 kts 310°
2026-05-06 18:24 58.04450 -1.17538 26041 ft 381 kts 310°
2026-05-06 18:24 58.06270 -1.21154 26043 ft 380 kts 310°
2026-05-06 18:24 58.08091 -1.24776 26046 ft 380 kts 310°
2026-05-06 18:25 58.09918 -1.28411 26046 ft 380 kts 310°
2026-05-06 18:25 58.11735 -1.32030 26045 ft 380 kts 310°
2026-05-06 18:25 58.13555 -1.35656 26045 ft 379 kts 310°
2026-05-06 18:25 58.15377 -1.39288 26043 ft 379 kts 310°
2026-05-06 18:26 58.17198 -1.42918 26041 ft 379 kts 310°
2026-05-06 18:26 58.19016 -1.46543 26040 ft 379 kts 310°
2026-05-06 18:26 58.20812 -1.50124 26040 ft 379 kts 310°
2026-05-06 18:26 58.22629 -1.53745 26038 ft 379 kts 310°
2026-05-06 18:27 58.24446 -1.57366 26041 ft 378 kts 309°
2026-05-06 18:27 58.26262 -1.60989 26038 ft 378 kts 310°
2026-05-06 18:27 58.28076 -1.64608 26043 ft 378 kts 309°
2026-05-06 18:27 58.29886 -1.68220 26038 ft 378 kts 309°
2026-05-06 18:28 58.31703 -1.71845 26038 ft 378 kts 309°
2026-05-06 18:28 58.33514 -1.75460 26035 ft 378 kts 309°
2026-05-06 18:28 58.35329 -1.79083 26033 ft 378 kts 309°
2026-05-06 18:28 58.37144 -1.82698 26037 ft 378 kts 311°
2026-05-06 18:29 58.39237 -1.85805 26053 ft 387 kts 326°
2026-05-06 18:29 58.41784 -1.87722 26365 ft 401 kts 341°
2026-05-06 18:29 58.44599 -1.88282 26919 ft 413 kts 355°
2026-05-06 18:29 58.47456 -1.87484 27374 ft 428 kts
2026-05-06 18:30 58.50251 -1.85313 27814 ft 443 kts 23°
2026-05-06 18:30 58.52802 -1.81844 28222 ft 457 kts 37°
2026-05-06 18:30 58.54949 -1.77245 28626 ft 471 kts 50°
2026-05-06 18:30 58.56574 -1.71713 29025 ft 482 kts 63°
2026-05-06 18:31 58.57584 -1.65512 29419 ft 492 kts 76°
2026-05-06 18:31 58.57919 -1.58928 29793 ft 500 kts 89°
2026-05-06 18:31 58.57557 -1.52278 30157 ft 505 kts 102°
2026-05-06 18:31 58.56528 -1.45935 30512 ft 506 kts 115°
2026-05-06 18:32 58.54853 -1.40007 30901 ft 505 kts 127°
2026-05-06 18:32 58.52630 -1.34849 31270 ft 501 kts 140°
2026-05-06 18:32 58.49947 -1.30649 31636 ft 496 kts 152°
2026-05-06 18:32 58.46921 -1.27581 32025 ft 488 kts 165°
2026-05-06 18:33 58.43712 -1.25781 32531 ft 476 kts 176°
2026-05-06 18:33 58.40452 -1.24784 33018 ft 475 kts 175°
2026-05-06 18:33 58.37253 -1.23037 33466 ft 483 kts 163°
2026-05-06 18:33 58.34250 -1.20094 33939 ft 490 kts 150°
2026-05-06 18:34 58.31567 -1.16068 34333 ft 495 kts 139°
2026-05-06 18:34 58.29281 -1.11127 34711 ft 498 kts 130°
2026-05-06 18:34 58.27219 -1.05842 35081 ft 498 kts 129°
2026-05-06 18:34 58.25167 -1.00565 35446 ft 496 kts 130°
2026-05-06 18:35 58.23070 -0.95383 35813 ft 495 kts 131°
2026-05-06 18:35 58.20925 -0.90267 35918 ft 494 kts 132°
2026-05-06 18:35 58.16590 -0.80210 36047 ft 491 kts 133°
2026-05-06 18:36 58.12259 -0.70280 36048 ft 491 kts 133°
2026-05-06 18:36 58.07899 -0.60319 36056 ft 490 kts 133°
2026-05-06 18:37 58.04283 -0.52083 36054 ft 490 kts 133°
2026-05-06 18:37 57.99180 -0.40507 36058 ft 490 kts 133°
2026-05-06 18:38 57.94816 -0.30655 36056 ft 490 kts 133°
2026-05-06 18:38 57.90462 -0.20866 36058 ft 489 kts 133°
2026-05-06 18:39 57.86085 -0.11065 36062 ft 489 kts 133°
2026-05-06 18:40 57.79518 0.03561 36066 ft 489 kts 133°
2026-05-06 18:40 57.75123 0.13297 36069 ft 488 kts 133°
2026-05-06 18:41 57.70749 0.22950 36069 ft 488 kts 133°
2026-05-06 18:41 57.66356 0.32603 36072 ft 488 kts 133°
2026-05-06 18:42 57.61937 0.42274 36070 ft 488 kts 134°
2026-05-06 18:42 57.57522 0.51896 36076 ft 490 kts 134°
2026-05-06 18:43 57.53025 0.61650 36075 ft 502 kts 134°
2026-05-06 18:43 57.48418 0.71606 36076 ft 512 kts 134°
2026-05-06 18:44 57.43765 0.81624 36074 ft 518 kts 134°
2026-05-06 18:44 57.39025 0.91785 36074 ft 521 kts 134°
2026-05-06 18:45 57.34295 1.01882 36079 ft 521 kts 134°
2026-05-06 18:45 57.29527 1.12014 36083 ft 521 kts 134°
2026-05-06 18:46 57.24756 1.22107 36091 ft 521 kts 134°
2026-05-06 18:46 57.19983 1.32161 36081 ft 521 kts 134°
2026-05-06 18:47 57.15195 1.42204 36080 ft 520 kts 134°
2026-05-06 18:47 57.10434 1.52148 36080 ft 520 kts 134°
2026-05-06 18:48 57.05643 1.62112 36072 ft 519 kts 134°
2026-05-06 18:48 57.01659 1.70367 36081 ft 519 kts 134°
2026-05-06 18:49 56.96870 1.80251 36079 ft 518 kts 134°
2026-05-06 18:49 56.92071 1.90113 36077 ft 518 kts 134°
2026-05-06 18:50 56.87273 1.99934 36078 ft 518 kts 134°
2026-05-06 18:50 56.82465 2.09733 36075 ft 517 kts 134°
2026-05-06 18:51 56.77705 2.19394 36070 ft 516 kts 134°
2026-05-06 18:51 56.72885 2.29137 36068 ft 516 kts 134°
2026-05-06 18:52 56.68076 2.38818 36063 ft 515 kts 135°
2026-05-06 18:52 56.63291 2.48411 36061 ft 514 kts 135°
2026-05-06 18:53 56.58486 2.58004 36056 ft 513 kts 135°
2026-05-06 18:53 56.53671 2.67580 36060 ft 512 kts 135°
2026-05-06 18:54 56.48857 2.77112 36061 ft 512 kts 135°
2026-05-06 18:54 56.44050 2.86595 36064 ft 511 kts 135°
2026-05-06 18:55 56.39234 2.96055 36065 ft 511 kts 135°
2026-05-06 18:55 56.34442 3.05432 36067 ft 510 kts 135°
2026-05-06 18:56 56.29625 3.14819 36071 ft 510 kts 135°
2026-05-06 18:56 56.24802 3.24183 36063 ft 509 kts 135°
2026-05-06 18:57 56.19978 3.33510 36055 ft 509 kts 135°
2026-05-06 18:57 56.15138 3.42831 36057 ft 509 kts 135°
2026-05-06 18:58 56.10312 3.52087 36053 ft 508 kts 136°
2026-05-06 18:58 56.05480 3.61320 36073 ft 507 kts 136°
2026-05-06 18:59 56.00685 3.70446 36127 ft 507 kts 136°
2026-05-06 18:59 55.95849 3.79614 36174 ft 506 kts 136°
2026-05-06 19:00 55.91011 3.88749 36238 ft 506 kts 136°
2026-05-06 19:00 55.86164 3.97866 36296 ft 505 kts 136°
2026-05-06 19:01 55.81325 4.06934 36352 ft 505 kts 136°
2026-05-06 19:01 55.76479 4.15981 36400 ft 505 kts 136°
2026-05-06 19:02 55.71632 4.24992 36456 ft 504 kts 136°
2026-05-06 19:02 55.66783 4.33974 36506 ft 504 kts 137°
2026-05-06 19:03 55.61957 4.42878 36563 ft 504 kts 137°
2026-05-06 19:03 55.57099 4.51808 36648 ft 503 kts 137°
2026-05-06 19:03 55.54674 4.56253 36777 ft 502 kts 137°
2026-05-06 19:04 55.52243 4.60701 36902 ft 501 kts 137°
2026-05-06 19:04 55.49819 4.65126 37036 ft 501 kts 137°
2026-05-06 19:04 55.47423 4.69494 37158 ft 500 kts 137°
2026-05-06 19:04 55.45001 4.73900 37287 ft 500 kts 137°
2026-05-06 19:05 55.42580 4.78298 37420 ft 499 kts 137°
2026-05-06 19:05 55.40160 4.82693 37544 ft 499 kts 137°
2026-05-06 19:05 55.37742 4.87076 37685 ft 498 kts 137°
2026-05-06 19:05 55.35324 4.91454 37807 ft 498 kts 137°
2026-05-06 19:06 55.32907 4.95821 37949 ft 498 kts 137°
2026-05-06 19:06 55.30687 5.00526 38082 ft 501 kts 126°
2026-05-06 19:06 55.28925 5.05713 38211 ft 503 kts 118°
2026-05-06 19:06 55.27377 5.11238 38350 ft 503 kts 118°
2026-05-06 19:07 55.25843 5.16760 38489 ft 503 kts 118°
2026-05-06 19:07 55.24314 5.22258 38613 ft 502 kts 118°
2026-05-06 19:07 55.22778 5.27757 38745 ft 502 kts 118°
2026-05-06 19:07 55.21238 5.33244 38848 ft 501 kts 118°
2026-05-06 19:08 55.19693 5.38728 38956 ft 501 kts 118°
2026-05-06 19:08 55.18147 5.44190 39060 ft 500 kts 118°
2026-05-06 19:08 55.16598 5.49650 39170 ft 500 kts 119°
2026-05-06 19:08 55.15052 5.55080 39272 ft 499 kts 119°
2026-05-06 19:09 55.13522 5.60444 39335 ft 500 kts 119°
2026-05-06 19:09 55.10390 5.71379 39203 ft 506 kts 119°
2026-05-06 19:10 55.07220 5.82392 39163 ft 508 kts 119°
2026-05-06 19:10 55.04037 5.93405 39183 ft 507 kts 119°
2026-05-06 19:11 55.00696 6.04921 38989 ft 507 kts 119°
2026-05-06 19:11 54.97539 6.15876 39031 ft 507 kts 119°
2026-05-06 19:12 54.94406 6.26839 39002 ft 507 kts 119°
2026-05-06 19:12 54.91247 6.37863 38998 ft 507 kts 119°
2026-05-06 19:13 54.88112 6.48785 38993 ft 507 kts 119°
2026-05-06 19:13 54.84955 6.59756 38992 ft 507 kts 119°
2026-05-06 19:14 54.81803 6.70699 38986 ft 507 kts 119°
2026-05-06 19:14 54.78644 6.81637 38984 ft 507 kts 119°
2026-05-06 19:15 54.75485 6.92560 38982 ft 507 kts 119°
2026-05-06 19:15 54.72330 7.03449 38977 ft 506 kts 119°
2026-05-06 19:16 54.69170 7.14335 38975 ft 506 kts 119°
2026-05-06 19:16 54.66007 7.25225 38973 ft 506 kts 119°
2026-05-06 19:17 54.63404 7.34176 38971 ft 506 kts 119°
2026-05-06 19:17 54.59724 7.46785 38964 ft 506 kts 119°
2026-05-06 19:18 54.57069 7.55864 38962 ft 506 kts 119°
2026-05-06 19:18 54.53897 7.66694 38952 ft 506 kts 119°
2026-05-06 19:19 54.50714 7.77536 38934 ft 506 kts 119°
2026-05-06 19:19 54.47544 7.88317 38979 ft 505 kts 119°
2026-05-06 19:19 54.45950 7.93729 39197 ft 504 kts 119°
2026-05-06 19:20 54.44367 7.99100 39364 ft 505 kts 120°
2026-05-06 19:20 54.42735 8.04414 39737 ft 499 kts 122°
2026-05-06 19:20 54.41019 8.09566 40191 ft 494 kts 122°
2026-05-06 19:20 54.39370 8.14693 40623 ft 492 kts 121°
2026-05-06 19:21 54.37698 8.19885 40726 ft 497 kts 122°
2026-05-06 19:21 54.36003 8.25089 40830 ft 500 kts 122°
2026-05-06 19:21 54.34196 8.30576 40923 ft 503 kts 122°
2026-05-06 19:22 54.33509 8.32651 40924 ft 504 kts 122°
2026-05-06 19:22 54.30027 8.43102 40923 ft 504 kts 122°
2026-05-06 19:23 54.26525 8.53559 40919 ft 504 kts 122°
2026-05-06 19:23 54.23036 8.63935 40916 ft 504 kts 122°
2026-05-06 19:24 54.19530 8.74315 40914 ft 504 kts 122°
2026-05-06 19:24 54.16009 8.84697 40911 ft 504 kts 123°
2026-05-06 19:25 54.12483 8.95050 40903 ft 504 kts 123°
2026-05-06 19:25 54.08949 9.05383 40901 ft 504 kts 123°
2026-05-06 19:26 54.05569 9.15224 40903 ft 504 kts 123°
2026-05-06 19:26 54.01997 9.25585 40898 ft 504 kts 123°
2026-05-06 19:27 53.98465 9.35784 40901 ft 504 kts 123°
2026-05-06 19:27 53.94902 9.46029 40899 ft 503 kts 123°
2026-05-06 19:28 53.91331 9.56257 40901 ft 503 kts 123°
2026-05-06 19:28 53.87746 9.66481 40904 ft 503 kts 123°
2026-05-06 19:29 53.84161 9.76663 40903 ft 503 kts 123°
2026-05-06 19:29 53.80544 9.86895 40905 ft 503 kts 123°
2026-05-06 19:30 53.76956 9.97002 40909 ft 503 kts 124°
2026-05-06 19:30 53.73375 10.07049 40907 ft 502 kts 124°
2026-05-06 19:31 53.69672 10.17177 40907 ft 501 kts 128°
2026-05-06 19:31 53.62785 10.30029 40917 ft 495 kts 139°
2026-05-06 19:32 53.57820 10.38144 40908 ft 495 kts 139°
2026-05-06 19:32 53.52890 10.46230 40896 ft 495 kts 139°
2026-05-06 19:33 53.47955 10.54293 40887 ft 495 kts 139°
2026-05-06 19:33 53.43005 10.62344 40888 ft 495 kts 139°
2026-05-06 19:34 53.38008 10.70441 40881 ft 495 kts 139°
2026-05-06 19:34 53.33060 10.78431 40883 ft 495 kts 139°
2026-05-06 19:35 53.28094 10.86423 40881 ft 495 kts 139°
2026-05-06 19:35 53.23128 10.94389 40876 ft 494 kts 139°
2026-05-06 19:36 53.19003 11.00983 40878 ft 494 kts 139°
2026-05-06 19:36 53.14031 11.08909 40876 ft 494 kts 139°
2026-05-06 19:37 53.09046 11.16829 40874 ft 494 kts 139°
2026-05-06 19:37 53.04072 11.24705 40870 ft 494 kts 140°
2026-05-06 19:38 52.99088 11.32569 40873 ft 493 kts 140°
2026-05-06 19:38 52.94139 11.40354 40864 ft 493 kts 140°
2026-05-06 19:39 52.89150 11.48175 40858 ft 493 kts 140°
2026-05-06 19:39 52.84157 11.55976 40852 ft 492 kts 140°
2026-05-06 19:40 52.79161 11.63756 40853 ft 492 kts 140°
2026-05-06 19:40 52.74189 11.71472 40853 ft 492 kts 140°
2026-05-06 19:41 52.69223 11.79154 40851 ft 492 kts 140°
2026-05-06 19:41 52.64195 11.86908 40841 ft 492 kts 140°
2026-05-06 19:42 52.59197 11.94587 40855 ft 491 kts 140°
2026-05-06 19:42 52.54207 12.02231 40848 ft 491 kts 140°
2026-05-06 19:43 52.49191 12.09889 40841 ft 491 kts 140°
2026-05-06 19:43 52.44187 12.17505 40833 ft 491 kts 141°
2026-05-06 19:44 52.39175 12.25109 40826 ft 491 kts 141°
2026-05-06 19:44 52.34148 12.32708 40822 ft 491 kts 141°
2026-05-06 19:45 52.29131 12.40270 40818 ft 491 kts 141°
2026-05-06 19:45 52.24098 12.47831 40814 ft 491 kts 141°
2026-05-06 19:46 52.19070 12.55359 40815 ft 490 kts 141°
2026-05-06 19:46 52.14036 12.62873 40810 ft 490 kts 141°
2026-05-06 19:47 52.09010 12.70351 40808 ft 489 kts 141°
2026-05-06 19:47 52.03982 12.77808 40806 ft 488 kts 141°
2026-05-06 19:48 51.98987 12.85193 40809 ft 488 kts 141°
2026-05-06 19:48 51.93960 12.92601 40819 ft 487 kts 141°
2026-05-06 19:49 51.88926 12.99995 40822 ft 488 kts 141°
2026-05-06 19:49 51.83883 13.07380 40824 ft 488 kts 141°
2026-05-06 19:50 51.78831 13.14754 40827 ft 489 kts 141°
2026-05-06 19:50 51.73769 13.22121 40825 ft 491 kts 141°
2026-05-06 19:51 51.68685 13.29496 40823 ft 491 kts 142°
2026-05-06 19:51 51.63597 13.36853 40817 ft 492 kts 142°
2026-05-06 19:52 51.58490 13.44215 40808 ft 492 kts 142°
2026-05-06 19:52 51.53378 13.51563 40798 ft 492 kts 142°
2026-05-06 19:53 51.48306 13.58828 40794 ft 491 kts 142°
2026-05-06 19:53 51.43208 13.66109 40790 ft 490 kts 142°
2026-05-06 19:54 51.38107 13.73371 40792 ft 490 kts 142°
2026-05-06 19:54 51.33011 13.80603 40794 ft 489 kts 143°
2026-05-06 19:55 51.27927 13.87796 40797 ft 488 kts 143°
2026-05-06 19:55 51.22841 13.94968 40795 ft 488 kts 143°
2026-05-06 19:56 51.17746 14.02132 40795 ft 487 kts 143°
2026-05-06 19:56 51.12651 14.09275 40796 ft 487 kts 143°
2026-05-06 19:57 51.07557 14.16394 40791 ft 487 kts 143°
2026-05-06 19:57 51.02459 14.23499 40789 ft 487 kts 143°
2026-05-06 19:58 50.97366 14.30585 40782 ft 487 kts 143°
2026-05-06 19:58 50.92261 14.37623 40783 ft 485 kts 144°
2026-05-06 19:59 50.87128 14.44565 40785 ft 485 kts 143°
2026-05-06 19:59 50.82084 14.51546 40784 ft 484 kts 143°
2026-05-06 20:00 50.77129 14.58334 40782 ft 483 kts 143°
2026-05-06 20:00 50.72173 14.65079 40782 ft 483 kts 143°
2026-05-06 20:01 50.67068 14.72000 40778 ft 483 kts 143°
2026-05-06 20:01 50.62455 14.78237 40769 ft 483 kts 143°
2026-05-06 20:02 50.57352 14.85117 40782 ft 483 kts 143°
2026-05-06 20:02 50.52259 14.91964 40769 ft 482 kts 143°
2026-05-06 20:03 50.47150 14.98812 40772 ft 482 kts 144°
2026-05-06 20:03 50.42037 15.05645 40775 ft 482 kts 144°
2026-05-06 20:04 50.36917 15.12466 40777 ft 482 kts 144°
2026-05-06 20:04 50.31828 15.19227 40770 ft 483 kts 144°
2026-05-06 20:05 50.26663 15.26068 40768 ft 484 kts 144°
2026-05-06 20:05 50.21511 15.32874 40765 ft 485 kts 144°
2026-05-06 20:06 50.16341 15.39683 40760 ft 486 kts 144°
2026-05-06 20:06 50.11171 15.46472 40755 ft 486 kts 144°
2026-05-06 20:07 50.05989 15.53256 40751 ft 486 kts 144°
2026-05-06 20:07 50.00840 15.59978 40745 ft 486 kts 144°
2026-05-06 20:08 49.95648 15.66735 40748 ft 486 kts 144°
2026-05-06 20:08 49.90434 15.73501 40746 ft 487 kts 144°
2026-05-06 20:09 49.85254 15.80204 40748 ft 487 kts 144°
2026-05-06 20:09 49.80042 15.86930 40763 ft 487 kts 144°
2026-05-06 20:10 49.75710 15.92504 40754 ft 487 kts 144°
2026-05-06 20:10 49.69653 16.00277 40764 ft 487 kts 144°
2026-05-06 20:11 49.65284 16.05867 40756 ft 486 kts 144°
2026-05-06 20:11 49.60111 16.12469 40752 ft 485 kts 144°
2026-05-06 20:12 49.54886 16.19119 40751 ft 485 kts 144°
2026-05-06 20:12 49.49709 16.25688 40748 ft 484 kts 144°
2026-05-06 20:13 49.44511 16.32265 40749 ft 484 kts 144°
2026-05-06 20:13 49.39308 16.38830 40745 ft 483 kts 144°
2026-05-06 20:14 49.34113 16.45368 40747 ft 483 kts 144°
2026-05-06 20:14 49.28911 16.51895 40745 ft 482 kts 144°
2026-05-06 20:15 49.23717 16.58392 40745 ft 483 kts 144°
2026-05-06 20:15 49.18498 16.64905 40746 ft 483 kts 144°
2026-05-06 20:16 49.13443 16.71630 40750 ft 487 kts 137°
2026-05-06 20:16 49.08729 16.79099 40745 ft 488 kts 137°
2026-05-06 20:17 49.04011 16.86572 40744 ft 489 kts 137°
2026-05-06 20:17 48.99300 16.93978 40748 ft 490 kts 137°
2026-05-06 20:18 48.94565 17.01389 40752 ft 490 kts 137°
2026-05-06 20:18 48.89784 17.08846 40757 ft 490 kts 137°
2026-05-06 20:19 48.85039 17.16227 40758 ft 490 kts 137°
2026-05-06 20:19 48.82695 17.19870 40762 ft 478 kts 137°
2026-05-06 20:19 48.80353 17.23500 40766 ft 483 kts 137°
2026-05-06 20:20 48.75602 17.30842 40766 ft 490 kts 137°
2026-05-06 20:20 48.70821 17.38217 40783 ft 490 kts 138°
2026-05-06 20:21 48.66048 17.45557 40797 ft 489 kts 138°
2026-05-06 20:21 48.61269 17.52886 40808 ft 489 kts 138°
2026-05-06 20:22 48.56489 17.60194 40819 ft 489 kts 138°
2026-05-06 20:22 48.51703 17.67492 40819 ft 489 kts 138°
2026-05-06 20:23 48.46918 17.74766 40820 ft 488 kts 138°
2026-05-06 20:23 48.42121 17.82038 40820 ft 488 kts 138°
2026-05-06 20:24 48.37359 17.89236 40819 ft 488 kts 138°
2026-05-06 20:24 48.32542 17.96497 40823 ft 487 kts 138°
2026-05-06 20:25 48.27783 18.03652 40827 ft 487 kts 138°
2026-05-06 20:25 48.22990 18.10836 40830 ft 487 kts 139°
2026-05-06 20:26 48.18195 18.18003 40836 ft 486 kts 139°
2026-05-06 20:26 48.13404 18.25146 40841 ft 486 kts 139°
2026-05-06 20:27 48.08577 18.32322 40847 ft 486 kts 139°
2026-05-06 20:27 48.03776 18.39437 40853 ft 486 kts 139°
2026-05-06 20:28 47.98972 18.46540 40859 ft 486 kts 139°
2026-05-06 20:28 47.94154 18.53642 40866 ft 486 kts 138°
2026-05-06 20:29 47.89331 18.60732 40866 ft 486 kts 138°
2026-05-06 20:29 47.84504 18.67808 40880 ft 486 kts 138°
2026-05-06 20:30 47.77258 18.78393 40885 ft 486 kts 138°
2026-05-06 20:31 47.72426 18.85429 40887 ft 486 kts 138°
2026-05-06 20:31 47.67581 18.92463 40885 ft 486 kts 138°
2026-05-06 20:32 47.62763 18.99438 40907 ft 486 kts 138°
2026-05-06 20:32 47.57995 19.06324 40923 ft 486 kts 139°
2026-05-06 20:33 47.53171 19.13272 40932 ft 486 kts 139°
2026-05-06 20:33 47.48344 19.20209 40932 ft 486 kts 139°
2026-05-06 20:34 47.43412 19.27130 40937 ft 485 kts 140°
2026-05-06 20:34 47.38473 19.33901 40937 ft 485 kts 140°
2026-05-06 20:35 47.33540 19.40706 40930 ft 485 kts 140°
2026-05-06 20:35 47.28597 19.47476 40926 ft 485 kts 140°
2026-05-06 20:36 47.23633 19.54243 40915 ft 485 kts 140°
2026-05-06 20:36 47.18709 19.60934 40914 ft 485 kts 140°
2026-05-06 20:37 47.13749 19.67657 40923 ft 485 kts 140°
2026-05-06 20:37 47.08775 19.74381 40929 ft 486 kts 140°
2026-05-06 20:38 47.03795 19.81095 40934 ft 486 kts 140°
2026-05-06 20:38 46.98810 19.87798 40936 ft 486 kts 140°
2026-05-06 20:39 46.93824 19.94485 40931 ft 486 kts 140°
2026-05-06 20:39 46.88830 20.01165 40927 ft 486 kts 140°
2026-05-06 20:40 46.83810 20.07862 40921 ft 486 kts 140°
2026-05-06 20:40 46.78817 20.14507 40914 ft 486 kts 140°
2026-05-06 20:41 46.73813 20.21147 40908 ft 487 kts 140°
2026-05-06 20:41 46.69647 20.26663 40902 ft 487 kts 140°
2026-05-06 20:42 46.64598 20.33332 40916 ft 487 kts 140°
2026-05-06 20:42 46.59582 20.39941 40912 ft 487 kts 140°
2026-05-06 20:43 46.54550 20.46552 40918 ft 487 kts 141°
2026-05-06 20:43 46.49515 20.53149 40912 ft 487 kts 141°
2026-05-06 20:44 46.44487 20.59721 40909 ft 487 kts 141°
2026-05-06 20:44 46.39446 20.66292 40913 ft 487 kts 141°
2026-05-06 20:45 46.34401 20.72852 40919 ft 487 kts 141°
2026-05-06 20:45 46.29376 20.79368 40918 ft 488 kts 141°
2026-05-06 20:46 46.24319 20.85910 40923 ft 488 kts 141°
2026-05-06 20:46 46.19251 20.92448 40927 ft 488 kts 141°
2026-05-06 20:47 46.14186 20.98967 40933 ft 488 kts 141°
2026-05-06 20:47 46.09112 21.05479 40934 ft 488 kts 141°
2026-05-06 20:48 46.04011 21.12009 40933 ft 488 kts 141°
2026-05-06 20:48 45.98920 21.18512 40935 ft 488 kts 141°
2026-05-06 20:49 45.93838 21.24984 40936 ft 489 kts 141°
2026-05-06 20:49 45.88747 21.31452 40937 ft 489 kts 141°
2026-05-06 20:50 45.83643 21.37921 40938 ft 489 kts 141°
2026-05-06 20:50 45.78537 21.44375 40940 ft 489 kts 141°
2026-05-06 20:51 45.73425 21.50819 40937 ft 489 kts 141°
2026-05-06 20:51 45.68333 21.57223 40940 ft 490 kts 141°
2026-05-06 20:52 45.63207 21.63654 40945 ft 490 kts 141°
2026-05-06 20:52 45.58074 21.70082 40953 ft 490 kts 141°
2026-05-06 20:53 45.52728 21.76089 40957 ft 489 kts 146°
2026-05-06 20:53 45.47270 21.81894 40962 ft 489 kts 146°
2026-05-06 20:54 45.41812 21.87706 40967 ft 490 kts 146°
2026-05-06 20:54 45.36346 21.93506 40977 ft 490 kts 146°
2026-05-06 20:55 45.30871 21.99292 40980 ft 490 kts 146°
2026-05-06 20:55 45.25393 22.05068 40991 ft 490 kts 146°
2026-05-06 20:56 45.19907 22.10836 40996 ft 491 kts 146°
2026-05-06 20:56 45.14450 22.16561 40999 ft 491 kts 146°
2026-05-06 20:57 45.08948 22.22319 41012 ft 491 kts 146°
2026-05-06 20:57 45.03436 22.28073 41013 ft 492 kts 146°
2026-05-06 20:58 44.97925 22.33811 41012 ft 492 kts 146°
2026-05-06 20:58 44.92404 22.39547 41017 ft 493 kts 146°
2026-05-06 20:59 44.86868 22.45284 41012 ft 493 kts 146°
2026-05-06 20:59 44.81329 22.51010 41005 ft 494 kts 146°
2026-05-06 21:00 44.75787 22.56725 41007 ft 494 kts 146°
2026-05-06 21:00 44.70244 22.62428 41001 ft 495 kts 146°
2026-05-06 21:01 44.64675 22.68143 40999 ft 495 kts 146°
2026-05-06 21:01 44.59103 22.73847 40993 ft 496 kts 146°
2026-05-06 21:02 44.53524 22.79545 40993 ft 496 kts 146°
2026-05-06 21:02 44.47950 22.85223 40990 ft 496 kts 146°
2026-05-06 21:03 44.42315 22.90951 40991 ft 497 kts 146°
2026-05-06 21:03 44.36750 22.96592 40992 ft 497 kts 146°
2026-05-06 21:04 44.31142 23.02265 40991 ft 498 kts 146°
2026-05-06 21:04 44.25523 23.07934 40991 ft 498 kts 146°
2026-05-06 21:05 44.19909 23.13585 40983 ft 498 kts 146°
2026-05-06 21:05 44.14280 23.19238 40982 ft 498 kts 146°
2026-05-06 21:06 44.08666 23.24861 40978 ft 499 kts 146°
2026-05-06 21:06 44.03009 23.30514 40979 ft 499 kts 146°
2026-05-06 21:07 43.97366 23.36140 40978 ft 499 kts 146°
2026-05-06 21:07 43.91705 23.41770 40975 ft 500 kts 146°
2026-05-06 21:08 43.86045 23.47387 40975 ft 500 kts 146°
2026-05-06 21:08 43.80373 23.53001 40972 ft 501 kts 146°
2026-05-06 21:09 43.74701 23.58602 40975 ft 501 kts 146°
2026-05-06 21:09 43.69025 23.64193 40983 ft 501 kts 146°
2026-05-06 21:10 43.63344 23.69777 40979 ft 501 kts 146°
2026-05-06 21:10 43.57638 23.75371 40986 ft 502 kts 146°
2026-05-06 21:11 43.51980 23.80906 40982 ft 502 kts 146°
2026-05-06 21:11 43.46273 23.86475 40986 ft 502 kts 146°
2026-05-06 21:12 43.40565 23.92032 40983 ft 503 kts 146°
2026-05-06 21:12 43.34856 23.97577 40985 ft 503 kts 146°
2026-05-06 21:13 43.29137 24.03119 40989 ft 503 kts 146°
2026-05-06 21:13 43.23394 24.08670 40989 ft 504 kts 146°
2026-05-06 21:14 43.17656 24.14204 40991 ft 504 kts 146°
2026-05-06 21:14 43.12883 24.18802 40995 ft 504 kts 146°
2026-05-06 21:15 43.06415 24.25624 41009 ft 506 kts 140°
2026-05-06 21:15 43.01110 24.31950 41013 ft 506 kts 140°
2026-05-06 21:16 42.96656 24.37244 41020 ft 507 kts 140°
2026-05-06 21:16 42.91317 24.43555 41027 ft 506 kts 140°
2026-05-06 21:17 42.86018 24.49794 41028 ft 506 kts 140°
2026-05-06 21:17 42.80683 24.56058 41031 ft 507 kts 140°
2026-05-06 21:18 42.75330 24.62327 41034 ft 507 kts 140°
2026-05-06 21:18 42.69972 24.68589 41037 ft 507 kts 140°
2026-05-06 21:19 42.64607 24.74843 41036 ft 508 kts 140°
2026-05-06 21:19 42.59236 24.81090 41038 ft 508 kts 140°
2026-05-06 21:20 42.53860 24.87326 41039 ft 508 kts 140°
2026-05-06 21:20 42.48479 24.93556 41040 ft 508 kts 140°
2026-05-06 21:21 42.43105 24.99762 41038 ft 508 kts 140°
2026-05-06 21:21 42.37719 25.05967 41039 ft 509 kts 140°
2026-05-06 21:22 42.32325 25.12167 41038 ft 509 kts 140°
2026-05-06 21:22 42.26962 25.18318 41039 ft 509 kts 140°
2026-05-06 21:23 42.21556 25.24503 41038 ft 509 kts 140°
2026-05-06 21:23 42.16144 25.30681 41041 ft 509 kts 140°
2026-05-06 21:24 42.10722 25.36856 41041 ft 510 kts 140°
2026-05-06 21:24 42.05303 25.43012 41045 ft 510 kts 140°
2026-05-06 21:25 42.00184 25.48815 41042 ft 510 kts 140°
2026-05-06 21:25 41.94744 25.54968 41039 ft 510 kts 140°
2026-05-06 21:26 41.89309 25.61101 41044 ft 510 kts 140°
2026-05-06 21:26 41.83899 25.67192 41045 ft 511 kts 141°
2026-05-06 21:27 41.78442 25.73322 41046 ft 511 kts 141°
2026-05-06 21:27 41.72986 25.79437 41049 ft 511 kts 141°
2026-05-06 21:28 41.67523 25.85546 41052 ft 512 kts 141°
2026-05-06 21:28 41.62059 25.91642 41050 ft 512 kts 141°
2026-05-06 21:29 41.56575 25.97745 41056 ft 512 kts 141°
2026-05-06 21:29 41.51130 26.03793 41056 ft 512 kts 141°
2026-05-06 21:30 41.45641 26.09875 41058 ft 512 kts 141°
2026-05-06 21:30 41.40136 26.15960 41056 ft 512 kts 141°
2026-05-06 21:31 41.34643 26.22019 41055 ft 512 kts 141°
2026-05-06 21:31 41.29140 26.28075 41055 ft 513 kts 141°
2026-05-06 21:32 41.24475 26.33198 41054 ft 513 kts 141°
2026-05-06 21:32 41.16087 26.42385 41060 ft 513 kts 141°
2026-05-06 21:33 41.10570 26.48410 41065 ft 513 kts 141°
2026-05-06 21:33 41.05048 26.54427 41066 ft 513 kts 141°
2026-05-06 21:34 40.99525 26.60432 41069 ft 514 kts 141°
2026-05-06 21:34 40.93987 26.66440 41072 ft 514 kts 141°
2026-05-06 21:35 40.88482 26.72399 41077 ft 514 kts 141°
2026-05-06 21:35 40.82929 26.78396 41081 ft 514 kts 141°
2026-05-06 21:36 40.77358 26.84399 41080 ft 515 kts 141°
2026-05-06 21:36 40.71813 26.90361 41086 ft 515 kts 141°
2026-05-06 21:37 40.66287 26.96289 41088 ft 515 kts 141°
2026-05-06 21:37 40.60721 27.02247 41088 ft 515 kts 141°
2026-05-06 21:38 40.55151 27.08197 41092 ft 515 kts 141°
2026-05-06 21:38 40.49576 27.14138 41092 ft 515 kts 141°
2026-05-06 21:39 40.44005 27.20061 41091 ft 516 kts 141°
2026-05-06 21:39 40.38458 27.25947 41093 ft 516 kts 141°
2026-05-06 21:40 40.32878 27.31860 41090 ft 516 kts 141°
2026-05-06 21:40 40.27292 27.37772 41091 ft 516 kts 141°
2026-05-06 21:41 40.21744 27.43759 41090 ft 516 kts 141°
2026-05-06 21:41 40.16208 27.49768 41093 ft 517 kts 141°
2026-05-06 21:42 40.10672 27.55756 41093 ft 517 kts 141°
2026-05-06 21:42 40.05119 27.61740 41094 ft 517 kts 141°
2026-05-06 21:43 39.99569 27.67704 41092 ft 517 kts 141°
2026-05-06 21:43 39.94009 27.73664 41095 ft 517 kts 141°
2026-05-06 21:44 39.88435 27.79627 41097 ft 518 kts 141°
2026-05-06 21:44 39.82866 27.85571 41100 ft 518 kts 141°
2026-05-06 21:45 39.77292 27.91507 41101 ft 518 kts 141°
2026-05-06 21:45 39.71708 27.97441 41102 ft 519 kts 141°
2026-05-06 21:46 39.66112 28.03376 41103 ft 519 kts 141°
2026-05-06 21:46 39.60561 28.09250 41102 ft 519 kts 141°
2026-05-06 21:47 39.54955 28.15169 41104 ft 519 kts 141°
2026-05-06 21:47 39.49346 28.21080 41111 ft 519 kts 141°
2026-05-06 21:48 39.43731 28.26982 41117 ft 520 kts 141°
2026-05-06 21:48 39.38113 28.32876 41124 ft 520 kts 141°
2026-05-06 21:49 39.32493 28.38760 41129 ft 520 kts 141°
2026-05-06 21:49 39.26897 28.44606 41130 ft 520 kts 141°
2026-05-06 21:50 39.21267 28.50476 41136 ft 520 kts 141°
2026-05-06 21:50 39.15624 28.56345 41135 ft 520 kts 142°
2026-05-06 21:51 39.09981 28.62203 41140 ft 520 kts 142°
2026-05-06 21:51 39.05297 28.67055 41147 ft 520 kts 142°
2026-05-06 21:52 38.99654 28.72891 41142 ft 520 kts 142°
2026-05-06 21:52 38.93082 28.79670 41148 ft 520 kts 142°
2026-05-06 21:53 38.88354 28.84539 41147 ft 520 kts 142°
2026-05-06 21:53 38.82698 28.90351 41142 ft 520 kts 142°
2026-05-06 21:54 38.77081 28.96110 41144 ft 521 kts 142°
2026-05-06 21:54 38.71380 29.01943 41140 ft 521 kts 142°
2026-05-06 21:55 38.65714 29.07728 41139 ft 521 kts 142°
2026-05-06 21:55 38.60084 29.13465 41137 ft 521 kts 142°
2026-05-06 21:56 38.54409 29.19236 41132 ft 521 kts 142°
2026-05-06 21:56 38.48734 29.24995 41135 ft 521 kts 142°
2026-05-06 21:57 38.43045 29.30755 41135 ft 521 kts 142°
2026-05-06 21:57 38.37350 29.36510 41132 ft 521 kts 142°
2026-05-06 21:58 38.31654 29.42255 41133 ft 522 kts 142°
2026-05-06 21:58 38.25991 29.47954 41131 ft 522 kts 142°
2026-05-06 21:59 38.20285 29.53685 41130 ft 522 kts 142°
2026-05-06 21:59 38.14578 29.59405 41136 ft 522 kts 143°
2026-05-06 22:00 38.08876 29.65108 41139 ft 522 kts 143°
2026-05-06 22:00 38.03167 29.70807 41145 ft 522 kts 143°
2026-05-06 22:01 37.97444 29.76507 41147 ft 522 kts 143°
2026-05-06 22:01 37.91735 29.82183 41154 ft 522 kts 143°
2026-05-06 22:02 37.86011 29.87862 41154 ft 522 kts 143°
2026-05-06 22:02 37.80287 29.93528 41155 ft 522 kts 143°
2026-05-06 22:03 37.74561 29.99186 41147 ft 522 kts 143°
2026-05-06 22:03 37.68834 30.04834 41157 ft 522 kts 143°
2026-05-06 22:04 37.63102 30.10475 41168 ft 522 kts 143°
2026-05-06 22:04 37.57367 30.16108 41162 ft 522 kts 143°
2026-05-06 22:05 37.51629 30.21732 41166 ft 522 kts 143°
2026-05-06 22:05 37.45912 30.27324 41162 ft 522 kts 143°
2026-05-06 22:06 37.40160 30.32939 41169 ft 523 kts 143°
2026-05-06 22:06 37.34405 30.38546 41164 ft 522 kts 143°
2026-05-06 22:07 37.28654 30.44139 41167 ft 522 kts 144°
2026-05-06 22:07 37.22902 30.49721 41161 ft 522 kts 144°
2026-05-06 22:08 37.17141 30.55300 41153 ft 522 kts 144°
2026-05-06 22:08 37.11419 30.60831 41141 ft 522 kts 144°
2026-05-06 22:09 37.05690 30.66358 41138 ft 522 kts 144°
2026-05-06 22:09 36.99919 30.71876 40837 ft 516 kts 147°
2026-05-06 22:10 36.96860 30.74206 40243 ft 513 kts 156°
2026-05-06 22:10 36.94937 30.75318 39828 ft 512 kts 158°
2026-05-06 22:10 36.91403 30.77280 38973 ft 514 kts 159°
2026-05-06 22:10 36.88163 30.79041 37946 ft 517 kts 159°
2026-05-06 22:11 36.84838 30.80825 36833 ft 521 kts 159°
2026-05-06 22:11 36.81487 30.82609 35708 ft 526 kts 159°
2026-05-06 22:11 36.78107 30.84405 34584 ft 531 kts 159°
2026-05-06 22:11 36.74680 30.86222 33323 ft 536 kts 159°
2026-05-06 22:12 36.71243 30.88044 32084 ft 538 kts 159°
2026-05-06 22:12 36.67797 30.89870 31117 ft 537 kts 159°
2026-05-06 22:12 36.64377 30.91681 30505 ft 530 kts 159°
2026-05-06 22:12 36.60992 30.93472 29883 ft 526 kts 159°
2026-05-06 22:13 36.57637 30.95245 29406 ft 520 kts 159°
2026-05-06 22:13 36.54322 30.96994 28905 ft 515 kts 159°
2026-05-06 22:13 36.51038 30.98726 28441 ft 510 kts 159°
2026-05-06 22:13 36.47824 31.00418 27954 ft 505 kts 159°
2026-05-06 22:14 36.44598 31.02116 27472 ft 501 kts 159°
2026-05-06 22:14 36.41399 31.03797 27006 ft 496 kts 159°
2026-05-06 22:14 36.38239 31.05457 26543 ft 491 kts 159°
2026-05-06 22:14 36.35101 31.07104 26071 ft 487 kts 159°
2026-05-06 22:15 36.31999 31.08730 25625 ft 482 kts 159°
2026-05-06 22:15 36.28921 31.10342 25175 ft 478 kts 159°
2026-05-06 22:15 36.25876 31.11936 24686 ft 474 kts 159°
2026-05-06 22:15 36.22825 31.13531 23968 ft 476 kts 159°
2026-05-06 22:16 36.19756 31.15133 23095 ft 480 kts 159°
2026-05-06 22:16 36.16677 31.16739 22287 ft 480 kts 159°
2026-05-06 22:16 36.13600 31.18345 21695 ft 476 kts 159°
2026-05-06 22:16 36.10604 31.19907 21095 ft 471 kts 159°
2026-05-06 22:17 36.07596 31.21474 20536 ft 466 kts 159°
2026-05-06 22:17 36.04621 31.23023 20360 ft 463 kts 159°
2026-05-06 22:17 36.01638 31.24572 20217 ft 466 kts 159°
2026-05-06 22:17 35.98650 31.26123 20118 ft 464 kts 159°
2026-05-06 22:18 35.95671 31.27669 20106 ft 464 kts 159°
2026-05-06 22:18 35.92687 31.29216 20108 ft 464 kts 159°
2026-05-06 22:18 35.89699 31.30765 20103 ft 464 kts 159°
2026-05-06 22:18 35.86762 31.32285 20106 ft 464 kts 159°
2026-05-06 22:19 35.83772 31.33832 20105 ft 464 kts 160°
2026-05-06 22:19 35.80792 31.35372 20110 ft 464 kts 160°
2026-05-06 22:19 35.77816 31.36909 20109 ft 463 kts 160°
2026-05-06 22:19 35.74830 31.38451 20106 ft 463 kts 160°
2026-05-06 22:20 35.71895 31.39964 20107 ft 463 kts 160°
2026-05-06 22:20 35.68918 31.41497 20107 ft 463 kts 160°
2026-05-06 22:20 35.65950 31.43026 20106 ft 462 kts 160°
2026-05-06 22:20 35.62979 31.44554 20105 ft 462 kts 160°
2026-05-06 22:21 35.60006 31.46082 20105 ft 462 kts 160°
2026-05-06 22:21 35.57035 31.47607 20110 ft 462 kts 160°
2026-05-06 22:21 35.54063 31.49132 20110 ft 462 kts 160°
2026-05-06 22:21 35.51095 31.50654 20107 ft 462 kts 160°
2026-05-06 22:22 35.48127 31.52174 20106 ft 462 kts 160°
2026-05-06 22:22 35.45171 31.53689 19948 ft 459 kts 160°
2026-05-06 22:22 35.42231 31.55193 19544 ft 457 kts 160°
2026-05-06 22:22 35.39341 31.56670 19060 ft 452 kts 160°
2026-05-06 22:23 35.36446 31.58149 18432 ft 449 kts 160°
2026-05-06 22:23 35.33565 31.59619 17745 ft 445 kts 160°
2026-05-06 22:23 35.30728 31.61064 17107 ft 439 kts 160°
2026-05-06 22:23 35.27919 31.62494 16442 ft 434 kts 160°
2026-05-06 22:24 35.25143 31.63906 15773 ft 429 kts 159°
2026-05-06 22:24 35.22406 31.65297 15106 ft 424 kts 159°
2026-05-06 22:24 35.19691 31.66676 14456 ft 419 kts 159°
2026-05-06 22:24 35.17016 31.68033 13807 ft 414 kts 159°
2026-05-06 22:25 35.14404 31.69358 13355 ft 407 kts 159°
2026-05-06 22:25 35.11773 31.70692 13176 ft 411 kts 159°
2026-05-06 22:25 35.09130 31.72031 13110 ft 409 kts 159°
2026-05-06 22:25 35.06508 31.73360 12925 ft 407 kts 159°
2026-05-06 22:26 35.03902 31.74679 12486 ft 404 kts 159°
2026-05-06 22:26 35.01317 31.75986 11886 ft 399 kts 158°
2026-05-06 22:26 34.98757 31.77280 11214 ft 394 kts 158°
2026-05-06 22:26 34.96243 31.78550 10545 ft 389 kts 158°
2026-05-06 22:27 34.93753 31.79806 9879 ft 385 kts 158°
2026-05-06 22:27 34.91295 31.81046 9172 ft 379 kts 158°
2026-05-06 22:27 34.88876 31.82266 8514 ft 373 kts 158°
2026-05-06 22:27 34.86491 31.83468 8198 ft 373 kts 158°
2026-05-06 22:28 34.84087 31.84678 8048 ft 373 kts 158°
2026-05-06 22:28 34.81706 31.85881 7821 ft 369 kts 156°
2026-05-06 22:28 34.79565 31.87493 7315 ft 365 kts 139°
2026-05-06 22:28 34.77976 31.89847 6651 ft 359 kts 118°
2026-05-06 22:29 34.77147 31.92624 6401 ft 340 kts 103°
2026-05-06 22:29 34.76650 31.95349 6197 ft 321 kts 101°
2026-05-06 22:29 34.76180 31.97918 6018 ft 302 kts 102°
2026-05-06 22:29 34.75670 32.00323 5837 ft 284 kts 104°
2026-05-06 22:30 34.75133 32.02577 5507 ft 272 kts 106°
2026-05-06 22:30 34.74576 32.04762 4975 ft 270 kts 107°
2026-05-06 22:30 34.74003 32.06936 4385 ft 268 kts 107°
2026-05-06 22:30 34.73432 32.09067 4094 ft 266 kts 107°
2026-05-06 22:31 34.73047 32.10496 4028 ft 270 kts 107°
2026-05-06 22:31 34.72466 32.12656 3998 ft 268 kts 107°
2026-05-06 22:31 34.71887 32.14810 3994 ft 269 kts 107°
2026-05-06 22:31 34.71306 32.16974 3998 ft 269 kts 107°
2026-05-06 22:32 34.70726 32.19131 3997 ft 268 kts 107°
2026-05-06 22:32 34.70147 32.21288 3997 ft 268 kts 107°
2026-05-06 22:32 34.69566 32.23444 3999 ft 268 kts 107°
2026-05-06 22:32 34.68985 32.25601 3996 ft 269 kts 107°
2026-05-06 22:33 34.68410 32.27734 3995 ft 268 kts 107°
2026-05-06 22:33 34.67822 32.29917 3996 ft 269 kts 107°
2026-05-06 22:33 34.67247 32.32049 3998 ft 268 kts 107°
2026-05-06 22:33 34.66664 32.34210 3999 ft 268 kts 107°
2026-05-06 22:34 34.66081 32.36364 3998 ft 269 kts 107°
2026-05-06 22:34 34.65497 32.38521 3996 ft 268 kts 107°
2026-05-06 22:34 34.64914 32.40676 3994 ft 268 kts 107°
2026-05-06 22:34 34.64328 32.42837 4000 ft 269 kts 107°
2026-05-06 22:35 34.63822 32.44706 3993 ft 269 kts 107°
2026-05-06 22:35 34.63237 32.46861 3997 ft 268 kts 107°
2026-05-06 22:35 34.62661 32.48983 4000 ft 269 kts 107°
2026-05-06 22:35 34.62075 32.51138 3998 ft 269 kts 107°
2026-05-06 22:36 34.61489 32.53295 3996 ft 268 kts 107°
2026-05-06 22:36 34.60934 32.55333 3999 ft 269 kts 107°
2026-05-06 22:36 34.60404 32.57277 3999 ft 269 kts 107°
2026-05-06 22:36 34.59818 32.59429 3995 ft 268 kts 107°
2026-05-06 22:37 34.59235 32.61564 3999 ft 268 kts 107°
2026-05-06 22:37 34.58648 32.63715 3992 ft 268 kts 107°
2026-05-06 22:37 34.58060 32.65871 3994 ft 268 kts 108°
2026-05-06 22:37 34.57476 32.68006 3816 ft 265 kts 108°
2026-05-06 22:38 34.56896 32.70124 3337 ft 265 kts 107°
2026-05-06 22:38 34.56319 32.72234 3071 ft 264 kts 108°
2026-05-06 22:38 34.55735 32.74364 3007 ft 266 kts 108°
2026-05-06 22:38 34.55127 32.76489 2996 ft 267 kts 114°
2026-05-06 22:39 34.54051 32.78274 2997 ft 268 kts 139°
2026-05-06 22:39 34.52439 32.79356 3003 ft 266 kts 161°
2026-05-06 22:39 34.50698 32.80153 2995 ft 269 kts 157°
2026-05-06 22:39 34.49018 32.81145 2997 ft 268 kts 152°
2026-05-06 22:40 34.47438 32.82330 2996 ft 267 kts 146°
2026-05-06 22:40 34.45966 32.83713 2995 ft 268 kts 139°
2026-05-06 22:40 34.44614 32.85273 2997 ft 269 kts 134°
2026-05-06 22:40 34.43388 32.86987 2997 ft 269 kts 128°
2026-05-06 22:41 34.41392 32.90803 2998 ft 269 kts 116°
2026-05-06 22:41 34.40631 32.92882 2999 ft 270 kts 110°
2026-05-06 22:41 34.40043 32.95039 2999 ft 269 kts 105°
2026-05-06 22:42 34.39635 32.97244 2998 ft 269 kts 99°
2026-05-06 22:42 34.39409 32.99468 2995 ft 268 kts 93°
2026-05-06 22:42 34.39362 33.01717 2996 ft 266 kts 88°
2026-05-06 22:42 34.39494 33.03925 2995 ft 266 kts 82°
2026-05-06 22:43 34.39804 33.06134 2996 ft 265 kts 77°
2026-05-06 22:43 34.40287 33.08289 3000 ft 266 kts 71°
2026-05-06 22:43 34.40940 33.10380 2998 ft 265 kts 65°
2026-05-06 22:43 34.41754 33.12378 2997 ft 265 kts 60°
2026-05-06 22:44 34.42728 33.14278 2995 ft 264 kts 54°
2026-05-06 22:44 34.43839 33.16038 2998 ft 263 kts 49°
2026-05-06 22:44 34.45088 33.17667 2998 ft 263 kts 43°
2026-05-06 22:44 34.46459 33.19128 2997 ft 263 kts 38°
2026-05-06 22:45 34.47939 33.20424 2932 ft 260 kts 31°
2026-05-06 22:45 34.49582 33.21180 2719 ft 252 kts
2026-05-06 22:45 34.51266 33.21033 2595 ft 237 kts 342°
2026-05-06 22:45 34.52690 33.20144 2335 ft 229 kts 319°
2026-05-06 22:46 34.53659 33.18650 2070 ft 223 kts 297°
2026-05-06 22:46 34.54257 33.16965 1959 ft 212 kts 289°
2026-05-06 22:46 34.54713 33.15300 1862 ft 204 kts 287°
2026-05-06 22:46 34.55139 33.13670 1669 ft 202 kts 287°
2026-05-06 22:47 34.55564 33.12051 1457 ft 201 kts 287°
2026-05-06 22:47 34.55987 33.10433 1249 ft 200 kts 288°
2026-05-06 22:47 34.56409 33.08826 1059 ft 199 kts 288°
2026-05-06 22:47 34.56821 33.07251 862 ft 194 kts 288°
2026-05-06 22:48 34.57225 33.05708 650 ft 188 kts 288°
2026-05-06 22:48 34.57591 33.04313 529 ft 175 kts 288°
2026-05-06 22:48 34.57981 33.02819 773 ft 179 kts 288°
2026-05-06 22:48 34.58337 33.01457 390 ft 160 kts 288°
2026-05-06 22:49 34.58645 33.00244 149 ft 142 kts 287°
2026-05-06 22:49 34.58888 32.99324 90 ft 74 kts 288°
2026-05-06 22:49 34.58948 32.99109 88 ft 0 kts 289°
2026-05-06 22:49 34.58948 32.99110 89 ft 0 kts 289°
2026-05-06 22:50 34.58972 32.99023 90 ft 25 kts 289°
2026-05-06 22:50 34.59049 32.98735 90 ft 47 kts 287°
2026-05-06 22:50 34.59138 32.98402 90 ft 15 kts 285°
2026-05-06 22:50 34.59093 32.98303 91 ft 9 kts 211°
2026-05-06 22:51 34.59091 32.98302 91 ft 0 kts 211°
2026-05-06 22:51 34.58989 32.98310 87 ft 18 kts 129°
2026-05-06 22:52 34.58934 32.98481 88 ft 26 kts 108°
2026-05-06 22:52 34.58875 32.98715 91 ft 33 kts 107°
2026-05-06 22:52 34.58801 32.98999 91 ft 39 kts 109°
2026-05-06 22:52 34.58711 32.99335 89 ft 44 kts 107°
2026-05-06 22:53 34.58614 32.99701 91 ft 48 kts 108°
2026-05-06 22:53 34.58580 32.99830 92 ft 0 kts 107°
2026-05-06 22:54 34.58488 32.99840 89 ft 19 kts 170°
2026-05-06 22:54 34.58423 32.99888 90 ft 1 kts 162°
2026-05-06 22:54 34.58403 32.99871 91 ft 0 kts 218°
2026-05-06 22:55 34.58398 32.99867 91 ft 0 kts 213°